"Period start","avg(HW err(1)/warn(2) (#))","avg(Visibility (m))","avg(Weather code (#))","avg(Precip intensity (mm/h))","min(HW err(1)/warn(2) (#))","max(HW err(1)/warn(2) (#))","std(HW err(1)/warn(2) (#))","med(HW err(1)/warn(2) (#))","min(Visibility (m))","max(Visibility (m))","std(Visibility (m))","med(Visibility (m))","min(Weather code (#))","max(Weather code (#))","std(Weather code (#))","med(Weather code (#))","min(Precip intensity (mm/h))","max(Precip intensity (mm/h))","std(Precip intensity (mm/h))","med(Precip intensity (mm/h))"
2014-10-27 00:00:00,2,50000,0,0.00,2,2,0,2,50000,50000,0,50000,0,0,0,0,0.00,0.00,0.00,0.00
2014-10-27 00:10:00,2,48750,0,0.00,2,2,0,2,45357,50000,1920,50000,0,0,0,0,0.00,0.00,0.00,0.00
2014-10-27 00:20:00,2,48190,0,0.00,2,2,0,2,43262,50000,2751,50000,0,0,0,0,0.00,0.00,0.00,0.00
2014-10-27 00:30:00,2,44097,0,0.00,2,2,0,2,28661,50000,7130,45550,0,0,0,0,0.00,0.00,0.00,0.00
2014-10-27 00:40:00,2,39191,0,0.00,2,2,0,2,27241,50000,8468,38035,0,0,0,0,0.00,0.00,0.00,0.00
2014-10-27 00:50:00,2,46889,0,0.00,2,2,0,2,39526,50000,4016,49856,0,0,0,0,0.00,0.00,0.00,0.00
2014-10-27 01:00:00,2,46557,0,0.00,2,2,0,2,31511,50000,5829,50000,0,0,0,0,0.00,0.00,0.00,0.00
2014-10-27 01:10:00,2,42604,0,0.00,2,2,0,2,32980,50000,5983,42786,0,0,0,0,0.00,0.00,0.00,0.00
2014-10-27 01:20:00,2,41040,0,0.00,2,2,0,2,31682,50000,5807,40990,0,0,0,0,0.00,0.00,0.00,0.00
2014-10-27 01:30:00,2,43871,0,0.00,2,2,0,2,35086,50000,5267,42468,0,0,0,0,0.00,0.00,0.00,0.00
2014-10-27 01:40:00,2,43750,0,0.00,2,2,0,2,34308,50000,5463,44080,0,0,0,0,0.00,0.00,0.00,0.00
2014-10-27 01:50:00,2,46972,0,0.00,2,2,0,2,39828,50000,3772,49720,0,0,0,0,0.00,0.00,0.00,0.00
2014-10-27 02:00:00,2,39410,0,0.00,2,2,0,2,27958,50000,5769,38655,0,0,0,0,0.00,0.00,0.00,0.00
2014-10-27 02:10:00,2,47823,0,0.00,2,2,0,2,41439,50000,2682,48864,0,0,0,0,0.00,0.00,0.00,0.00
2014-10-27 02:20:00,2,44679,0,0.00,2,2,0,2,33658,50000,5962,47151,0,0,0,0,0.00,0.00,0.00,0.00
2014-10-27 02:30:00,2,42629,0,0.00,2,2,0,2,33808,50000,4795,43738,0,0,0,0,0.00,0.00,0.00,0.00
2014-10-27 02:40:00,2,43942,0,0.00,2,2,0,2,37492,50000,5262,43645,0,0,0,0,0.00,0.00,0.00,0.00
2014-10-27 02:50:00,2,44139,0,0.00,2,2,0,2,32925,50000,5083,43190,0,0,0,0,0.00,0.00,0.00,0.00
2014-10-27 03:00:00,2,42845,0,0.00,2,2,0,2,32795,50000,6405,42104,0,0,0,0,0.00,0.00,0.00,0.00
2014-10-27 03:10:00,2,43484,0,0.00,2,2,0,2,31256,50000,6233,45100,0,0,0,0,0.00,0.00,0.00,0.00
2014-10-27 03:20:00,2,40969,0,0.00,2,2,0,2,25266,50000,8459,44553,0,0,0,0,0.00,0.00,0.00,0.00
2014-10-27 03:30:00,2,45608,0,0.00,2,2,0,2,30900,50000,5979,49090,0,0,0,0,0.00,0.00,0.00,0.00
2014-10-27 03:40:00,2,46242,0,0.00,2,2,0,2,39222,50000,4391,49340,0,0,0,0,0.00,0.00,0.00,0.00
2014-10-27 03:50:00,2,49450,0,0.00,2,2,0,2,44771,50000,1562,50000,0,0,0,0,0.00,0.00,0.00,0.00
2014-10-27 04:00:00,2,49937,0,0.00,2,2,0,2,49371,50000,189,50000,0,0,0,0,0.00,0.00,0.00,0.00
2014-10-27 04:10:00,2,48888,0,0.00,2,2,0,2,38881,50000,3336,50000,0,0,0,0,0.00,0.00,0.00,0.00
2014-10-27 04:20:00,2,49473,0,0.00,2,2,0,2,46137,50000,1188,50000,0,0,0,0,0.00,0.00,0.00,0.00
2014-10-27 04:30:00,2,49911,0,0.00,2,2,0,2,49106,50000,268,50000,0,0,0,0,0.00,0.00,0.00,0.00
2014-10-27 04:40:00,2,50000,0,0.00,2,2,0,2,50000,50000,0,50000,0,0,0,0,0.00,0.00,0.00,0.00
2014-10-27 04:50:00,2,50000,0,0.00,2,2,0,2,50000,50000,0,50000,0,0,0,0,0.00,0.00,0.00,0.00
2014-10-27 05:00:00,2,49344,0,0.00,2,2,0,2,46482,50000,1316,50000,0,0,0,0,0.00,0.00,0.00,0.00
2014-10-27 05:10:00,2,49803,0,0.00,2,2,0,2,48314,50000,504,50000,0,0,0,0,0.00,0.00,0.00,0.00
2014-10-27 05:20:00,2,50000,0,0.00,2,2,0,2,50000,50000,0,50000,0,0,0,0,0.00,0.00,0.00,0.00
2014-10-27 05:30:00,2,50000,0,0.00,2,2,0,2,50000,50000,0,50000,0,0,0,0,0.00,0.00,0.00,0.00
2014-10-27 05:40:00,2,50000,0,0.00,2,2,0,2,50000,50000,0,50000,0,0,0,0,0.00,0.00,0.00,0.00
2014-10-27 05:50:00,2,49563,0,0.00,2,2,0,2,45632,50000,1310,50000,0,0,0,0,0.00,0.00,0.00,0.00
2014-10-27 06:00:00,2,50000,0,0.00,2,2,0,2,50000,50000,0,50000,0,0,0,0,0.00,0.00,0.00,0.00
2014-10-27 06:10:00,2,50000,0,0.00,2,2,0,2,50000,50000,0,50000,0,0,0,0,0.00,0.00,0.00,0.00
2014-10-27 06:20:00,2,50000,0,0.00,2,2,0,2,50000,50000,0,50000,0,0,0,0,0.00,0.00,0.00,0.00
2014-10-27 06:30:00,2,50000,0,0.00,2,2,0,2,50000,50000,0,50000,0,0,0,0,0.00,0.00,0.00,0.00
2014-10-27 06:40:00,2,50000,0,0.00,2,2,0,2,50000,50000,0,50000,0,0,0,0,0.00,0.00,0.00,0.00
2014-10-27 06:50:00,2,50000,0,0.00,2,2,0,2,50000,50000,0,50000,0,0,0,0,0.00,0.00,0.00,0.00
2014-10-27 07:00:00,2,50000,0,0.00,2,2,0,2,50000,50000,0,50000,0,0,0,0,0.00,0.00,0.00,0.00
2014-10-27 07:10:00,2,50000,0,0.00,2,2,0,2,50000,50000,0,50000,0,0,0,0,0.00,0.00,0.00,0.00
2014-10-27 07:20:00,2,50000,0,0.00,2,2,0,2,50000,50000,0,50000,0,0,0,0,0.00,0.00,0.00,0.00
2014-10-27 07:30:00,2,50000,0,0.00,2,2,0,2,50000,50000,0,50000,0,0,0,0,0.00,0.00,0.00,0.00
2014-10-27 07:40:00,2,50000,0,0.00,2,2,0,2,50000,50000,0,50000,0,0,0,0,0.00,0.00,0.00,0.00
2014-10-27 07:50:00,2,50000,0,0.00,2,2,0,2,50000,50000,0,50000,0,0,0,0,0.00,0.00,0.00,0.00
2014-10-27 08:00:00,2,50000,0,0.00,2,2,0,2,50000,50000,0,50000,0,0,0,0,0.00,0.00,0.00,0.00
2014-10-27 08:10:00,2,50000,0,0.00,2,2,0,2,50000,50000,0,50000,0,0,0,0,0.00,0.00,0.00,0.00
2014-10-27 08:20:00,2,50000,0,0.00,2,2,0,2,50000,50000,0,50000,0,0,0,0,0.00,0.00,0.00,0.00
2014-10-27 08:30:00,2,50000,0,0.00,2,2,0,2,50000,50000,0,50000,0,0,0,0,0.00,0.00,0.00,0.00
2014-10-27 08:40:00,2,50000,0,0.00,2,2,0,2,50000,50000,0,50000,0,0,0,0,0.00,0.00,0.00,0.00
2014-10-27 08:50:00,2,50000,0,0.00,2,2,0,2,50000,50000,0,50000,0,0,0,0,0.00,0.00,0.00,0.00
2014-10-27 09:00:00,2,50000,0,0.00,2,2,0,2,50000,50000,0,50000,0,0,0,0,0.00,0.00,0.00,0.00
2014-10-27 09:10:00,2,50000,0,0.00,2,2,0,2,50000,50000,0,50000,0,0,0,0,0.00,0.00,0.00,0.00
2014-10-27 09:20:00,2,49986,0,0.00,2,2,0,2,49859,50000,42,50000,0,0,0,0,0.00,0.00,0.00,0.00
2014-10-27 09:30:00,2,50000,0,0.00,2,2,0,2,50000,50000,0,50000,0,0,0,0,0.00,0.00,0.00,0.00
2014-10-27 09:40:00,2,50000,0,0.00,2,2,0,2,50000,50000,0,50000,0,0,0,0,0.00,0.00,0.00,0.00
2014-10-27 09:50:00,2,50000,0,0.00,2,2,0,2,50000,50000,0,50000,0,0,0,0,0.00,0.00,0.00,0.00
2014-10-27 10:00:00,2,50000,0,0.00,2,2,0,2,50000,50000,0,50000,0,0,0,0,0.00,0.00,0.00,0.00
2014-10-27 10:10:00,2,50000,0,0.00,2,2,0,2,50000,50000,0,50000,0,0,0,0,0.00,0.00,0.00,0.00
2014-10-27 10:20:00,2,49578,0,0.00,2,2,0,2,46662,50000,1007,50000,0,0,0,0,0.00,0.00,0.00,0.00
2014-10-27 10:30:00,2,50000,0,0.00,2,2,0,2,50000,50000,0,50000,0,0,0,0,0.00,0.00,0.00,0.00
2014-10-27 10:40:00,2,50000,0,0.00,2,2,0,2,50000,50000,0,50000,0,0,0,0,0.00,0.00,0.00,0.00
2014-10-27 10:50:00,2,50000,0,0.00,2,2,0,2,50000,50000,0,50000,0,0,0,0,0.00,0.00,0.00,0.00
2014-10-27 11:00:00,2,50000,0,0.00,2,2,0,2,50000,50000,0,50000,0,0,0,0,0.00,0.00,0.00,0.00
2014-10-27 11:10:00,2,50000,0,0.00,2,2,0,2,50000,50000,0,50000,0,0,0,0,0.00,0.00,0.00,0.00
2014-10-27 11:20:00,2,50000,0,0.00,2,2,0,2,50000,50000,0,50000,0,0,0,0,0.00,0.00,0.00,0.00
2014-10-27 11:30:00,2,50000,0,0.00,2,2,0,2,50000,50000,0,50000,0,0,0,0,0.00,0.00,0.00,0.00
2014-10-27 11:40:00,2,50000,0,0.00,2,2,0,2,50000,50000,0,50000,0,0,0,0,0.00,0.00,0.00,0.00
2014-10-27 11:50:00,2,50000,0,0.00,2,2,0,2,50000,50000,0,50000,0,0,0,0,0.00,0.00,0.00,0.00
2014-10-27 12:00:00,2,50000,0,0.00,2,2,0,2,50000,50000,0,50000,0,0,0,0,0.00,0.00,0.00,0.00
2014-10-27 12:10:00,2,50000,0,0.00,2,2,0,2,50000,50000,0,50000,0,0,0,0,0.00,0.00,0.00,0.00
2014-10-27 12:20:00,2,50000,0,0.00,2,2,0,2,50000,50000,0,50000,0,0,0,0,0.00,0.00,0.00,0.00
2014-10-27 12:30:00,2,50000,0,0.00,2,2,0,2,50000,50000,0,50000,0,0,0,0,0.00,0.00,0.00,0.00
2014-10-27 12:40:00,2,50000,0,0.00,2,2,0,2,50000,50000,0,50000,0,0,0,0,0.00,0.00,0.00,0.00
2014-10-27 12:50:00,2,50000,0,0.00,2,2,0,2,50000,50000,0,50000,0,0,0,0,0.00,0.00,0.00,0.00
2014-10-27 13:00:00,2,50000,0,0.00,2,2,0,2,50000,50000,0,50000,0,0,0,0,0.00,0.00,0.00,0.00
2014-10-27 13:10:00,2,50000,0,0.00,2,2,0,2,50000,50000,0,50000,0,0,0,0,0.00,0.00,0.00,0.00
2014-10-27 13:20:00,2,50000,0,0.00,2,2,0,2,50000,50000,0,50000,0,0,0,0,0.00,0.00,0.00,0.00
2014-10-27 13:30:00,2,50000,0,0.00,2,2,0,2,50000,50000,0,50000,0,0,0,0,0.00,0.00,0.00,0.00
2014-10-27 13:40:00,2,50000,0,0.00,2,2,0,2,50000,50000,0,50000,0,0,0,0,0.00,0.00,0.00,0.00
2014-10-27 13:50:00,2,50000,0,0.00,2,2,0,2,50000,50000,0,50000,0,0,0,0,0.00,0.00,0.00,0.00
2014-10-27 14:00:00,2,48279,0,0.00,2,2,0,2,37707,50000,3817,50000,0,0,0,0,0.00,0.00,0.00,0.00
2014-10-27 14:10:00,2,50000,0,0.00,2,2,0,2,50000,50000,0,50000,0,0,0,0,0.00,0.00,0.00,0.00
2014-10-27 14:20:00,2,50000,0,0.00,2,2,0,2,50000,50000,0,50000,0,0,0,0,0.00,0.00,0.00,0.00
2014-10-27 14:30:00,2,50000,0,0.00,2,2,0,2,50000,50000,0,50000,0,0,0,0,0.00,0.00,0.00,0.00
2014-10-27 14:40:00,2,50000,0,0.00,2,2,0,2,50000,50000,0,50000,0,0,0,0,0.00,0.00,0.00,0.00
2014-10-27 14:50:00,2,50000,0,0.00,2,2,0,2,50000,50000,0,50000,0,0,0,0,0.00,0.00,0.00,0.00
2014-10-27 15:00:00,2,50000,0,0.00,2,2,0,2,50000,50000,0,50000,0,0,0,0,0.00,0.00,0.00,0.00
2014-10-27 15:10:00,2,50000,0,0.00,2,2,0,2,50000,50000,0,50000,0,0,0,0,0.00,0.00,0.00,0.00
2014-10-27 15:20:00,2,50000,0,0.00,2,2,0,2,50000,50000,0,50000,0,0,0,0,0.00,0.00,0.00,0.00
2014-10-27 15:30:00,2,50000,0,0.00,2,2,0,2,50000,50000,0,50000,0,0,0,0,0.00,0.00,0.00,0.00
2014-10-27 15:40:00,2,50000,0,0.00,2,2,0,2,50000,50000,0,50000,0,0,0,0,0.00,0.00,0.00,0.00
2014-10-27 15:50:00,2,50000,0,0.00,2,2,0,2,50000,50000,0,50000,0,0,0,0,0.00,0.00,0.00,0.00
2014-10-27 16:00:00,2,50000,0,0.00,2,2,0,2,50000,50000,0,50000,0,0,0,0,0.00,0.00,0.00,0.00
2014-10-27 16:10:00,2,50000,0,0.00,2,2,0,2,50000,50000,0,50000,0,0,0,0,0.00,0.00,0.00,0.00
2014-10-27 16:20:00,2,50000,0,0.00,2,2,0,2,50000,50000,0,50000,0,0,0,0,0.00,0.00,0.00,0.00
2014-10-27 16:30:00,2,50000,0,0.00,2,2,0,2,50000,50000,0,50000,0,0,0,0,0.00,0.00,0.00,0.00
2014-10-27 16:40:00,2,50000,0,0.00,2,2,0,2,50000,50000,0,50000,0,0,0,0,0.00,0.00,0.00,0.00
2014-10-27 16:50:00,2,50000,0,0.00,2,2,0,2,50000,50000,0,50000,0,0,0,0,0.00,0.00,0.00,0.00
2014-10-27 17:00:00,2,50000,0,0.00,2,2,0,2,50000,50000,0,50000,0,0,0,0,0.00,0.00,0.00,0.00
2014-10-27 17:10:00,2,50000,0,0.00,2,2,0,2,50000,50000,0,50000,0,0,0,0,0.00,0.00,0.00,0.00
2014-10-27 17:20:00,2,50000,0,0.00,2,2,0,2,50000,50000,0,50000,0,0,0,0,0.00,0.00,0.00,0.00
2014-10-27 17:30:00,2,50000,0,0.00,2,2,0,2,50000,50000,0,50000,0,0,0,0,0.00,0.00,0.00,0.00
2014-10-27 17:40:00,2,50000,0,0.00,2,2,0,2,50000,50000,0,50000,0,0,0,0,0.00,0.00,0.00,0.00
2014-10-27 17:50:00,2,50000,0,0.00,2,2,0,2,50000,50000,0,50000,0,0,0,0,0.00,0.00,0.00,0.00
2014-10-27 18:00:00,2,50000,0,0.00,2,2,0,2,50000,50000,0,50000,0,0,0,0,0.00,0.00,0.00,0.00
2014-10-27 18:10:00,2,50000,0,0.00,2,2,0,2,50000,50000,0,50000,0,0,0,0,0.00,0.00,0.00,0.00
2014-10-27 18:20:00,2,50000,0,0.00,2,2,0,2,50000,50000,0,50000,0,0,0,0,0.00,0.00,0.00,0.00
2014-10-27 18:30:00,2,50000,0,0.00,2,2,0,2,50000,50000,0,50000,0,0,0,0,0.00,0.00,0.00,0.00
2014-10-27 18:40:00,2,50000,0,0.00,2,2,0,2,50000,50000,0,50000,0,0,0,0,0.00,0.00,0.00,0.00
2014-10-27 18:50:00,2,50000,0,0.00,2,2,0,2,50000,50000,0,50000,0,0,0,0,0.00,0.00,0.00,0.00
2014-10-27 19:00:00,2,50000,0,0.00,2,2,0,2,50000,50000,0,50000,0,0,0,0,0.00,0.00,0.00,0.00
2014-10-27 19:10:00,2,50000,0,0.00,2,2,0,2,50000,50000,0,50000,0,0,0,0,0.00,0.00,0.00,0.00
2014-10-27 19:20:00,2,49539,0,0.00,2,2,0,2,46345,50000,1102,50000,0,0,0,0,0.00,0.00,0.00,0.00
2014-10-27 19:30:00,2,46312,0,0.00,2,2,0,2,37330,50000,4751,49978,0,0,0,0,0.00,0.00,0.00,0.00
2014-10-27 19:40:00,2,36105,30,0.00,2,2,0,2,26685,50000,6883,35115,0,78,37,0,0.00,0.00,0.00,0.00
2014-10-27 19:50:00,2,35300,64,0.00,2,2,0,2,13733,45010,9569,36616,0,71,21,71,0.00,0.00,0.00,0.00
2014-10-27 20:00:00,2,49811,7,0.00,2,2,0,2,48109,50000,567,50000,0,71,21,0,0.00,0.00,0.00,0.00
2014-10-27 20:10:00,2,43976,14,0.01,2,2,0,2,17762,50000,10805,50000,0,71,28,0,0.00,0.05,0.02,0.00
2014-10-27 20:20:00,2,16335,71,0.10,2,2,0,2,4195,26908,7013,15576,71,71,0,71,0.00,0.50,0.15,0.05
2014-10-27 20:30:00,2,34502,71,0.02,2,2,0,2,15205,47642,8079,37081,71,71,0,71,0.00,0.10,0.03,0.00
2014-10-27 20:40:00,2,49245,0,0.00,2,2,0,2,43076,50000,2065,50000,0,0,0,0,0.00,0.00,0.00,0.00
2014-10-27 20:50:00,2,49179,0,0.00,2,2,0,2,42938,50000,2108,50000,0,0,0,0,0.00,0.00,0.00,0.00
2014-10-27 21:00:00,2,50000,0,0.00,2,2,0,2,50000,50000,0,50000,0,0,0,0,0.00,0.00,0.00,0.00
2014-10-27 21:10:00,2,30299,22,0.00,2,2,0,2,13148,50000,12112,26962,0,77,33,0,0.00,0.00,0.00,0.00
2014-10-27 21:20:00,2,41672,36,0.01,2,2,0,2,23776,50000,9051,45584,0,71,36,36,0.00,0.05,0.02,0.00
2014-10-27 21:30:00,2,42135,38,0.00,2,2,0,2,21266,50000,10393,48944,0,78,38,36,0.00,0.00,0.00,0.00
2014-10-27 21:40:00,2,48824,0,0.00,2,2,0,2,46422,50000,1433,49558,0,0,0,0,0.00,0.00,0.00,0.00
2014-10-27 21:50:00,2,28963,36,0.19,2,2,0,2,5699,50000,20840,31382,0,71,36,36,0.00,1.20,0.36,0.00
2014-10-27 22:00:00,2,8662,71,0.47,2,2,0,2,3318,13902,2866,8763,71,71,0,71,0.05,1.10,0.26,0.47
2014-10-27 22:10:00,2,17066,71,0.14,2,2,0,2,6990,28472,6736,14354,71,71,0,71,0.00,0.50,0.15,0.15
2014-10-27 22:20:00,2,7261,71,0.56,2,2,0,2,3194,15250,3424,7071,71,71,0,71,0.00,2.00,0.54,0.43
2014-10-27 22:30:00,2,8442,71,0.54,2,2,0,2,3445,14845,3946,6952,71,71,0,71,0.15,1.00,0.34,0.55
2014-10-27 22:40:00,2,12151,71,0.23,2,2,0,2,7345,23605,4626,10980,71,71,0,71,0.00,0.70,0.21,0.17
2014-10-27 22:50:00,2,16278,71,0.11,2,2,0,2,8658,25421,5064,16163,71,71,0,71,0.00,0.30,0.12,0.05
2014-10-27 23:00:00,2,11190,71,0.33,2,2,0,2,7582,18006,3606,9934,71,71,0,71,0.05,1.00,0.26,0.25
2014-10-27 23:10:00,2,17844,71,0.08,2,2,0,2,9853,22112,3514,18460,71,71,0,71,0.00,0.30,0.09,0.05
2014-10-27 23:20:00,2,13443,73,0.07,2,2,0,2,9114,15830,2024,13494,71,77,3,71,0.00,0.25,0.06,0.05
2014-10-27 23:30:00,2,10367,71,0.13,2,2,0,2,6547,20739,3911,9114,71,71,0,71,0.00,0.65,0.18,0.08
2014-10-27 23:40:00,2,32771,74,0.01,2,2,0,2,17298,50000,11773,29534,71,78,3,71,0.00,0.05,0.02,0.00
2014-10-27 23:50:00,2,40956,78,0.00,2,2,0,2,29127,50000,8923,45367,77,78,0,78,0.00,0.00,0.00,0.00
